Date,TemperatureHighF,TemperatureAvgF,TemperatureLowF,DewpointHighF,DewpointAvgF,DewpointLowF,HumidityHigh,HumidityAvg,HumidityLow,PressureMaxIn,PressureMinIn,WindSpeedMaxMPH,WindSpeedAvgMPH,GustSpeedMaxMPH,PrecipitationSumIn
2013-3-1,64.0,47.3,35.0,35.0,29.6,24.0,83,56,25,0.00,40.00,10,6,23,0.00
2013-3-2,53.0,41.7,33.0,33.0,27.1,22.0,86,59,32,0.00,40.00,11,6,26,0.00
2013-3-3,67.0,43.7,28.0,38.0,28.8,21.0,93,63,21,0.00,40.00,9,5,17,0.00
2013-3-4,75.0,60.8,44.0,60.0,51.8,38.0,97,74,50,0.00,40.00,15,9,32,0.00
2013-3-5,71.0,62.5,45.0,61.0,43.1,28.0,94,55,21,0.00,40.00,12,7,33,0.00
2013-3-6,69.0,48.7,34.0,37.0,28.1,22.0,79,50,17,0.00,40.00,8,5,16,0.00
2013-3-7,71.0,51.6,36.0,40.0,34.6,32.0,89,58,25,0.00,40.00,6,4,11,0.00
2013-3-8,75.0,57.0,40.0,54.0,45.7,38.0,92,69,43,0.00,40.00,8,5,15,0.00
2013-3-9,72.0,62.8,55.0,62.0,56.3,46.0,95,80,59,0.00,40.00,13,7,28,0.00
2013-3-10,69.0,60.4,51.0,62.0,57.3,44.0,97,90,76,0.00,40.00,13,6,29,0.24
2013-3-11,62.0,49.9,40.0,44.0,34.0,29.0,84,58,29,0.00,40.00,10,6,22,0.01
2013-3-12,73.0,50.9,32.0,40.0,32.5,28.0,96,59,20,0.00,40.00,6,4,13,0.00
2013-3-13,74.0,54.6,38.0,41.0,32.9,25.0,91,53,17,0.00,40.00,9,5,17,0.00
2013-3-14,75.0,54.9,38.0,42.0,35.9,30.0,89,56,22,0.00,40.00,8,5,19,0.00
2013-3-15,79.0,59.8,41.0,57.0,47.5,39.0,95,69,34,0.00,40.00,12,6,22,0.00
2013-3-16,79.0,65.2,52.0,62.0,55.5,51.0,98,75,41,0.00,40.00,11,7,24,0.00
2013-3-17,79.0,65.8,56.0,67.0,60.3,55.0,98,85,54,0.00,40.00,13,6,24,0.00
2013-3-18,88.0,74.2,66.0,68.0,65.1,61.0,97,77,41,0.00,40.00,10,6,20,0.00
2013-3-19,81.0,67.4,51.0,61.0,48.0,40.0,76,52,31,0.00,40.00,9,6,19,0.00
2013-3-20,75.0,60.9,50.0,52.0,41.2,31.0,97,54,21,0.00,40.00,14,8,27,0.21
2013-3-21,71.0,58.6,47.0,51.0,40.9,32.0,75,55,26,0.00,40.00,13,7,26,0.11
2013-3-22,83.0,70.1,61.0,68.0,63.0,51.0,95,79,57,0.00,40.00,11,6,21,0.00
2013-3-23,71.0,68.5,64.0,68.0,66.2,59.0,98,93,84,0.00,40.00,6,4,14,0.01
2013-3-24,64.0,57.1,43.0,60.0,42.7,27.0,96,63,28,0.00,40.00,15,8,31,0.01
2013-3-25,62.0,46.8,34.0,33.0,25.5,18.0,88,49,19,0.00,40.00,10,7,24,0.01
2013-3-26,61.0,45.2,30.0,30.0,24.0,19.0,81,48,20,0.00,40.00,10,5,25,0.00
2013-3-27,70.0,47.0,32.0,36.0,30.3,27.0,86,60,24,0.00,40.00,7,5,14,0.00
2013-3-28,74.0,66.7,56.0,53.0,51.0,48.0,89,59,42,0.00,40.00,7,6,15,0.00
2013-3-29,79.0,62.7,52.0,59.0,54.8,51.0,97,79,45,0.00,40.00,8,6,17,0.00
2013-3-30,77.0,65.9,58.0,61.0,56.8,-99.9,98,81,50,0.00,40.00,11,6,22,0.00
2013-3-31,77.0,63.0,59.0,68.0,60.3,48.0,99,92,61,0.00,40.00,15,5,34,0.43